sat.trackr.live / text

‹ back to catalog

STARLINK-35875

NORAD 67111 · 2025-299K

PAYLOAD ACTIVE UNKNOWN

§ Identity

Operator
Country
US
Launch date
2025-12-15
Launch site
AFETR
Launch vehicle
Mass (kg)
RCS (m²)

Purposes: comms

External: N2YO · Heavens-Above · Gunter

§ Orbital elements

Epoch: 2026-09-19T01:45:43.332480Z

Period
94.27 min
Inclination
42.9987°
Eccentricity
0.0001175
Mean motion
15.27593675 rev/d
Perigee alt
482.2 km
Apogee alt
483.8 km
Semi-major
6,861.1 km
B*
4.7073e-4
RAAN
156.7004°
Arg perigee
269.1848°
Mean anomaly
90.8869°
Rev number
4,269

§ Raw data

STARLINK-358751 67111U 25299K   26262.07341820  .00012719  00000+0  47073-3 0  99992 67111  42.9987 156.7004 0001175 269.1848  90.8869 15.27593675 42693

JSON: /api/v1/satellites/67111 · /tle

For live sub-satellite position, see the globe view (requires WebGL).

§ Visibility from observer

Set your observer location to see the next 7 days of passes ≥ 10°. The values pass through the URL so the page stays shareable.

No JS? Fill the form by hand. The geolocation button needs JavaScript.